contact:dominique.lefevre@mio.osupytheas.fr, maurice.libes@osupytheas.fr, didier.mallarino@osupytheas.fr
Project:EMSO http://www.emso-fr.org/EMSO-France
Depth: 2436.0 m
Title:EMSO Ligure Ouest : Data MII capteur AQUADOPP
Date,Latitude,Longitude,X_East,Y_North,Z_Up,Amplitude_X,Amplitude_Y,Amplitude_Z,Batterie,SoundSpeed,Heading,Pitch,Roll,Pressure,TIS,Speed,Direction
, degrees North, degrees East, m.s-1, m.s-1,m.s-1, 1, 1, 1, Volt, m.s-1, degree, degree, degree, dbar, degree_C, m.s-1, degree
2019-06-10T00:09:04,42.805,6.029,0.058,0.003,-0.027,102.0,107.0,97.0,13.4,1505.2,326.4,-0.8,1.8,2470.281,13.29,0.058,87.0
2019-06-10T00:12:05,42.805,6.029,0.041,0.012,-0.028,100.0,107.0,97.0,13.3,1505.2,323.3,-0.7,1.8,2470.259,13.3,0.042,73.7
2019-06-10T00:15:06,42.805,6.029,0.04,-0.011,-0.01,102.0,106.0,97.0,13.4,1505.3,326.2,-0.8,1.9,2470.184,13.31,0.041,105.4
2019-06-10T00:18:07,42.805,6.029,0.051,0.0,-0.012,101.0,103.0,98.0,13.3,1505.3,324.8,-0.8,1.8,2470.237,13.31,0.051,90.0
2019-06-10T00:21:08,42.805,6.029,0.057,-0.003,-0.002,101.0,105.0,98.0,13.4,1505.3,327.2,-0.8,1.8,2470.184,13.31,0.057,93.0
2019-06-10T00:24:09,42.805,6.029,0.076,-0.006,0.0,101.0,104.0,97.0,13.4,1505.3,327.8,-0.7,1.8,2470.22,13.32,0.076,94.5
2019-06-10T00:27:10,42.805,6.029,0.062,0.0,0.01,101.0,105.0,97.0,13.4,1505.3,323.1,-0.8,1.8,2470.2,13.32,0.061,90.0
2019-06-10T00:30:11,42.805,6.029,0.06,0.001,-0.016,99.0,106.0,98.0,13.4,1505.3,325.9,-0.8,1.8,2470.191,13.32,0.06,89.0
2019-06-10T00:33:12,42.805,6.029,0.054,-0.008,-0.031,100.0,104.0,98.0,13.4,1505.3,326.1,-0.8,1.8,2470.159,13.32,0.054,98.4
2019-06-10T00:36:13,42.805,6.029,0.051,-0.025,-0.023,101.0,104.0,98.0,13.4,1505.3,325.7,-0.7,1.8,2470.232,13.32,0.056,116.1
2019-06-10T00:39:14,42.805,6.029,0.026,-0.013,-0.051,101.0,106.0,98.0,13.3,1505.3,324.2,-0.7,1.8,2470.204,13.32,0.029,116.6
2019-06-10T00:42:15,42.805,6.029,0.059,0.007,0.006,101.0,103.0,98.0,13.4,1505.3,325.1,-0.7,1.8,2470.183,13.32,0.059,83.2
2019-06-10T00:45:16,42.805,6.029,0.017,-0.019,-0.009,101.0,107.0,97.0,13.4,1505.3,327.4,-0.7,1.8,2470.183,13.32,0.025,138.2
2019-06-10T00:48:17,42.805,6.029,0.074,0.0,-0.01,101.0,105.0,98.0,13.4,1505.3,324.1,-0.7,1.9,2470.22,13.32,0.073,90.0
2019-06-10T00:51:18,42.805,6.029,0.05,-0.024,-0.042,100.0,105.0,99.0,13.4,1505.3,322.9,-0.8,1.9,2470.223,13.32,0.055,115.6
2019-06-10T00:54:19,42.805,6.029,0.041,0.0,0.019,101.0,105.0,97.0,13.4,1505.3,325.5,-0.7,1.8,2470.182,13.32,0.041,90.0
2019-06-10T00:57:20,42.805,6.029,0.039,-0.014,-0.05,99.0,105.0,99.0,13.4,1505.3,326.1,-0.7,1.9,2470.157,13.32,0.041,109.7
2019-06-10T01:00:21,42.805,6.029,0.075,-0.025,0.009,102.0,106.0,97.0,13.4,1505.3,326.3,-0.7,1.8,2470.173,13.32,0.079,108.4
2019-06-10T01:03:22,42.805,6.029,0.049,0.008,-0.015,100.0,105.0,98.0,13.4,1505.3,325.0,-0.7,1.9,2470.173,13.32,0.049,80.7
2019-06-10T01:06:23,42.805,6.029,0.048,-0.023,0.0,101.0,104.0,98.0,13.4,1505.3,327.8,-0.8,1.8,2470.191,13.32,0.053,115.6
2019-06-10T01:09:24,42.805,6.029,0.067,0.004,0.009,101.0,103.0,98.0,13.4,1505.3,323.2,-0.7,1.8,2470.157,13.32,0.067,86.6
2019-06-10T01:12:25,42.805,6.029,0.048,-0.002,-0.029,101.0,104.0,98.0,13.4,1505.3,326.0,-0.7,1.8,2470.178,13.32,0.048,92.4
2019-06-10T01:15:26,42.805,6.029,0.057,0.0,-0.023,101.0,103.0,98.0,13.4,1505.3,324.5,-0.7,1.8,2470.198,13.32,0.057,90.0
2019-06-10T01:18:27,42.805,6.029,0.064,-0.018,-0.031,100.0,104.0,98.0,13.4,1505.3,324.8,-0.7,1.9,2470.133,13.32,0.066,105.7
2019-06-10T01:21:28,42.805,6.029,0.048,-0.032,-0.005,100.0,103.0,98.0,13.3,1505.3,325.6,-0.8,1.8,2470.213,13.32,0.057,123.7
2019-06-10T01:24:29,42.805,6.029,0.024,-0.021,-0.022,100.0,103.0,98.0,13.4,1505.3,326.5,-0.7,1.8,2470.181,13.32,0.031,131.2
2019-06-10T01:27:30,42.805,6.029,0.059,-0.013,0.009,101.0,102.0,99.0,13.4,1505.3,326.2,-0.8,1.9,2470.185,13.32,0.06,102.4
2019-06-10T01:30:31,42.805,6.029,0.068,-0.005,-0.01,101.0,103.0,98.0,13.4,1505.3,324.4,-0.8,1.8,2470.19,13.32,0.068,94.2
2019-06-10T01:33:32,42.805,6.029,0.04,-0.012,-0.045,100.0,104.0,97.0,13.4,1505.3,324.9,-0.7,1.8,2470.198,13.32,0.041,106.7
2019-06-10T01:36:33,42.805,6.029,0.038,-0.007,-0.001,101.0,104.0,98.0,13.4,1505.3,327.7,-0.7,1.8,2470.164,13.32,0.038,100.4
2019-06-10T01:39:34,42.805,6.029,0.051,-0.008,0.013,102.0,103.0,97.0,13.3,1505.3,327.2,-0.7,1.9,2470.159,13.32,0.051,98.9
2019-06-10T01:42:35,42.805,6.029,0.048,-0.017,0.018,101.0,104.0,98.0,13.4,1505.3,327.5,-0.8,1.8,2470.186,13.32,0.05,109.5
2019-06-10T01:45:36,42.805,6.029,0.035,-0.016,-0.006,102.0,104.0,98.0,13.3,1505.3,327.9,-0.7,1.9,2470.154,13.32,0.038,114.6
2019-06-10T01:48:37,42.805,6.029,0.04,0.009,0.017,101.0,104.0,99.0,13.4,1505.3,327.5,-0.7,1.8,2470.162,13.32,0.041,77.3
2019-06-10T01:51:38,42.805,6.029,0.064,-0.014,0.004,100.0,103.0,97.0,13.4,1505.3,324.5,-0.8,1.9,2470.141,13.32,0.065,102.3
2019-06-10T01:54:39,42.805,6.029,0.071,-0.016,-0.013,99.0,102.0,97.0,13.4,1505.3,325.6,-0.7,1.8,2470.214,13.32,0.072,102.7
2019-06-10T01:57:40,42.805,6.029,0.064,-0.036,-0.052,101.0,103.0,98.0,13.3,1505.3,326.9,-0.7,1.8,2470.179,13.32,0.073,119.4
2019-06-10T02:00:41,42.805,6.029,0.056,-0.008,-0.011,100.0,104.0,97.0,13.3,1505.3,323.8,-0.7,1.9,2470.143,13.32,0.056,98.1
2019-06-10T02:03:42,42.805,6.029,0.056,-0.012,0.009,100.0,105.0,98.0,13.4,1505.3,324.9,-0.8,1.9,2470.151,13.32,0.057,102.1
2019-06-10T02:06:43,42.805,6.029,0.03,0.001,-0.007,100.0,103.0,98.0,13.4,1505.3,327.7,-0.7,1.8,2470.205,13.32,0.03,88.1
2019-06-10T02:09:44,42.805,6.029,0.053,-0.003,0.012,100.0,104.0,98.0,13.4,1505.3,323.9,-0.8,1.8,2470.139,13.32,0.053,93.2
2019-06-10T02:12:45,42.805,6.029,0.068,0.0,-0.014,102.0,104.0,98.0,13.3,1505.3,325.9,-0.7,1.8,2470.147,13.32,0.067,90.0
2019-06-10T02:15:46,42.805,6.029,0.052,-0.008,-0.018,103.0,102.0,96.0,13.4,1505.3,324.5,-0.8,1.9,2470.119,13.32,0.052,98.7
2019-06-10T02:18:47,42.805,6.029,0.019,-0.003,-0.027,102.0,105.0,97.0,13.4,1505.3,326.4,-0.8,1.8,2470.134,13.32,0.019,99.0
2019-06-10T02:21:48,42.805,6.029,0.074,0.008,-0.013,100.0,103.0,97.0,13.3,1505.3,326.5,-0.8,1.8,2470.158,13.32,0.074,83.8
2019-06-10T02:24:49,42.805,6.029,0.058,-0.015,-0.013,102.0,103.0,97.0,13.3,1505.3,326.2,-0.7,1.8,2470.188,13.32,0.059,104.5
2019-06-10T02:27:50,42.805,6.029,0.047,-0.015,0.001,101.0,103.0,98.0,13.4,1505.3,326.0,-0.7,1.8,2470.113,13.32,0.049,107.7
2019-06-10T02:30:51,42.805,6.029,0.07,-0.027,0.0,101.0,103.0,97.0,13.3,1505.3,325.3,-0.8,1.9,2470.143,13.32,0.075,111.1
2019-06-10T02:33:52,42.805,6.029,0.07,-0.015,0.021,100.0,102.0,97.0,13.3,1505.3,323.4,-0.7,1.9,2470.116,13.32,0.071,102.1
2019-06-10T02:36:53,42.805,6.029,0.064,-0.003,-0.006,101.0,105.0,97.0,13.3,1505.3,325.8,-0.7,1.9,2470.129,13.32,0.064,92.7
2019-06-10T02:39:54,42.805,6.029,0.052,0.004,-0.01,100.0,104.0,98.0,13.4,1505.3,326.3,-0.8,1.9,2470.153,13.32,0.052,85.6
2019-06-10T02:42:55,42.805,6.029,0.048,-0.011,-0.006,100.0,104.0,98.0,13.3,1505.3,327.4,-0.7,1.8,2470.182,13.32,0.049,102.9
2019-06-10T02:45:56,42.805,6.029,0.058,-0.016,-0.026,100.0,104.0,97.0,13.4,1505.3,327.0,-0.7,1.9,2470.14,13.32,0.06,105.4
2019-06-10T02:48:57,42.805,6.029,0.067,-0.022,0.014,102.0,103.0,97.0,13.4,1505.3,322.4,-0.8,1.8,2470.126,13.32,0.07,108.2
2019-06-10T02:51:58,42.805,6.029,0.068,-0.01,-0.009,100.0,103.0,97.0,13.4,1505.3,325.5,-0.7,1.8,2470.141,13.32,0.068,98.4
2019-06-10T02:54:59,42.805,6.029,0.067,-0.033,0.017,100.0,104.0,97.0,13.4,1505.3,326.9,-0.7,1.8,2470.139,13.32,0.074,116.2
2019-06-10T02:58:00,42.805,6.029,0.022,-0.031,-0.021,101.0,104.0,99.0,13.4,1505.3,326.0,-0.7,1.8,2470.109,13.32,0.038,144.6
2019-06-10T03:01:01,42.805,6.029,0.064,-0.024,-0.023,101.0,103.0,97.0,13.4,1505.3,325.3,-0.8,1.9,2470.158,13.32,0.068,110.6
2019-06-10T03:04:02,42.805,6.029,0.05,-0.022,0.009,100.0,104.0,97.0,13.4,1505.3,325.2,-0.8,1.8,2470.13,13.32,0.054,113.7
2019-06-10T03:07:03,42.805,6.029,0.031,-0.027,-0.025,99.0,102.0,98.0,13.3,1505.3,323.6,-0.8,1.9,2470.197,13.32,0.041,131.1
2019-06-10T03:10:04,42.805,6.029,0.052,-0.02,-0.038,101.0,104.0,97.0,13.4,1505.3,327.1,-0.8,1.8,2470.148,13.32,0.055,111.0
2019-06-10T03:13:05,42.805,6.029,0.056,-0.033,-0.008,101.0,103.0,97.0,13.4,1505.3,326.5,-0.8,1.8,2470.105,13.32,0.064,120.5
2019-06-10T03:16:06,42.805,6.029,0.032,-0.016,-0.043,103.0,104.0,97.0,13.4,1505.3,325.0,-0.7,1.8,2470.109,13.32,0.035,116.6
2019-06-10T03:19:07,42.805,6.029,0.045,-0.025,-0.035,102.0,106.0,97.0,13.3,1505.3,324.9,-0.7,1.8,2470.117,13.32,0.051,119.1
2019-06-10T03:22:08,42.805,6.029,0.048,-0.009,0.006,101.0,105.0,99.0,13.4,1505.3,325.7,-0.7,1.8,2470.133,13.32,0.048,100.6
2019-06-10T03:25:09,42.805,6.029,0.066,-0.02,0.012,102.0,104.0,97.0,13.4,1505.3,326.6,-0.7,1.8,2470.142,13.32,0.068,106.9
2019-06-10T03:28:10,42.805,6.029,0.041,-0.017,-0.038,102.0,103.0,98.0,13.4,1505.3,327.9,-0.7,1.9,2470.14,13.32,0.044,112.5
2019-06-10T03:31:11,42.805,6.029,0.052,-0.029,-0.007,102.0,103.0,97.0,13.4,1505.3,328.1,-0.7,1.8,2470.122,13.32,0.059,119.1
2019-06-10T03:34:12,42.805,6.029,0.055,-0.029,-0.017,102.0,103.0,98.0,13.4,1505.3,325.9,-0.8,1.9,2470.099,13.32,0.062,117.8
2019-06-10T03:37:13,42.805,6.029,0.065,-0.015,0.001,99.0,103.0,97.0,13.4,1505.3,324.9,-0.7,1.8,2470.208,13.32,0.066,103.0
2019-06-10T03:40:14,42.805,6.029,0.046,-0.031,-0.028,101.0,103.0,97.0,13.4,1505.3,326.4,-0.7,1.8,2470.167,13.32,0.055,124.0
2019-06-10T03:43:15,42.805,6.029,0.063,-0.012,0.014,100.0,102.0,98.0,13.4,1505.3,327.8,-0.7,1.8,2470.115,13.32,0.064,100.8
2019-06-10T03:46:16,42.805,6.029,0.043,-0.008,-0.017,101.0,103.0,99.0,13.4,1505.3,322.8,-0.7,1.9,2470.117,13.32,0.043,100.5
2019-06-10T03:49:17,42.805,6.029,0.035,-0.016,-0.019,101.0,105.0,97.0,13.4,1505.3,323.3,-0.8,1.9,2470.128,13.32,0.038,114.6
2019-06-10T03:52:18,42.805,6.029,0.066,0.003,-0.028,101.0,106.0,97.0,13.4,1505.3,325.3,-0.8,1.9,2470.102,13.32,0.066,87.4
2019-06-10T03:55:19,42.805,6.029,0.074,-0.026,-0.003,102.0,104.0,98.0,13.4,1505.3,326.0,-0.7,1.9,2470.114,13.32,0.078,109.4
2019-06-10T03:58:20,42.805,6.029,0.056,-0.013,0.001,101.0,103.0,97.0,13.4,1505.3,326.2,-0.7,1.8,2470.116,13.32,0.057,103.1
2019-06-10T04:01:21,42.805,6.029,0.071,-0.029,-0.009,101.0,103.0,98.0,13.4,1505.3,325.0,-0.8,1.8,2470.108,13.32,0.076,112.2
2019-06-10T04:04:22,42.805,6.029,0.041,0.012,-0.008,99.0,104.0,98.0,13.3,1505.3,324.7,-0.8,1.9,2470.152,13.32,0.042,73.7
2019-06-10T04:07:23,42.805,6.029,0.062,-0.003,0.001,101.0,103.0,97.0,13.4,1505.3,327.3,-0.7,1.9,2470.146,13.32,0.062,92.8
2019-06-10T04:10:24,42.805,6.029,0.042,-0.016,-0.03,101.0,104.0,97.0,13.4,1505.3,326.2,-0.7,1.8,2470.106,13.32,0.044,110.9
2019-06-10T04:13:25,42.805,6.029,0.037,-0.02,-0.032,101.0,104.0,97.0,13.4,1505.3,323.7,-0.7,1.8,2470.094,13.32,0.042,118.4
2019-06-10T04:16:26,42.805,6.029,0.06,0.0,-0.02,100.0,104.0,97.0,13.3,1505.3,323.2,-0.7,1.8,2470.139,13.32,0.06,90.0
2019-06-10T04:19:27,42.805,6.029,0.048,-0.015,-0.008,104.0,104.0,98.0,13.4,1505.3,326.4,-0.8,1.8,2470.082,13.32,0.05,107.4
2019-06-10T04:22:28,42.805,6.029,0.041,-0.017,-0.001,102.0,104.0,99.0,13.4,1505.3,327.6,-0.7,1.8,2470.151,13.32,0.044,112.5
2019-06-10T04:25:29,42.805,6.029,0.055,0.0,-0.003,101.0,105.0,97.0,13.4,1505.3,325.1,-0.7,1.9,2470.099,13.32,0.055,90.0
2019-06-10T04:28:30,42.805,6.029,0.061,-0.036,-0.003,100.0,105.0,98.0,13.3,1505.3,323.2,-0.8,1.8,2470.099,13.32,0.07,120.5
2019-06-10T04:31:31,42.805,6.029,0.048,-0.008,-0.03,101.0,104.0,98.0,13.3,1505.3,325.9,-0.7,1.8,2470.057,13.32,0.048,99.5
2019-06-10T04:34:32,42.805,6.029,0.055,-0.005,-0.011,100.0,105.0,97.0,13.4,1505.3,327.1,-0.7,1.9,2470.062,13.32,0.055,95.2
2019-06-10T04:37:33,42.805,6.029,0.047,-0.004,0.003,101.0,104.0,97.0,13.3,1505.3,326.4,-0.7,1.9,2470.109,13.32,0.047,94.9
2019-06-10T04:40:34,42.805,6.029,0.062,0.0,-0.013,102.0,103.0,98.0,13.4,1505.3,324.7,-0.8,1.8,2470.068,13.32,0.061,90.0
2019-06-10T04:43:35,42.805,6.029,0.015,-0.022,-0.001,99.0,106.0,97.0,13.4,1505.3,327.6,-0.7,1.9,2470.152,13.32,0.026,145.7
2019-06-10T04:46:36,42.805,6.029,0.045,0.001,-0.028,102.0,106.0,97.0,13.4,1505.3,323.9,-0.7,1.8,2470.107,13.32,0.045,88.7
2019-06-10T04:49:37,42.805,6.029,0.053,-0.005,-0.019,101.0,105.0,99.0,13.4,1505.3,325.6,-0.7,1.9,2470.048,13.32,0.053,95.4
2019-06-10T04:52:38,42.805,6.029,0.046,-0.012,-0.028,102.0,106.0,98.0,13.4,1505.3,327.0,-0.7,1.8,2470.061,13.32,0.047,104.6
2019-06-10T04:55:39,42.805,6.029,0.059,-0.012,0.008,100.0,105.0,98.0,13.3,1505.3,324.5,-0.7,1.9,2470.118,13.32,0.06,101.5
2019-06-10T04:58:40,42.805,6.029,0.036,-0.017,-0.009,101.0,104.0,97.0,13.3,1505.3,327.5,-0.7,1.9,2470.086,13.32,0.039,115.3
2019-06-10T05:01:41,42.805,6.029,0.065,-0.003,-0.009,100.0,103.0,98.0,13.4,1505.3,324.2,-0.7,1.8,2470.064,13.32,0.065,92.6
2019-06-10T05:04:42,42.805,6.029,0.044,0.018,-0.001,101.0,105.0,97.0,13.4,1505.3,325.6,-0.7,1.8,2470.074,13.32,0.047,67.8
2019-06-10T05:07:43,42.805,6.029,0.037,-0.008,0.0,100.0,105.0,97.0,13.4,1505.3,327.8,-0.7,1.9,2470.058,13.32,0.037,102.2
2019-06-10T05:10:44,42.805,6.029,0.056,-0.019,-0.063,100.0,103.0,96.0,13.3,1505.3,327.2,-0.7,1.8,2470.069,13.32,0.059,108.7
2019-06-10T05:13:45,42.805,6.029,0.049,-0.016,0.006,100.0,106.0,97.0,13.3,1505.3,323.8,-0.7,1.8,2470.055,13.32,0.051,108.1
2019-06-10T05:16:46,42.805,6.029,0.057,-0.031,-0.051,99.0,107.0,97.0,13.4,1505.3,326.7,-0.7,1.8,2470.093,13.32,0.064,118.5
2019-06-10T05:19:47,42.805,6.029,0.043,-0.012,-0.013,101.0,107.0,98.0,13.4,1505.3,326.0,-0.7,1.8,2470.052,13.32,0.044,105.6
2019-06-10T05:22:48,42.805,6.029,0.077,-0.012,0.004,101.0,103.0,98.0,13.3,1505.3,325.1,-0.7,1.8,2470.094,13.32,0.077,98.9
2019-06-10T05:25:49,42.805,6.029,0.057,-0.012,0.01,100.0,103.0,97.0,13.4,1505.3,327.3,-0.7,1.8,2470.052,13.32,0.058,101.9
2019-06-10T05:28:50,42.805,6.029,0.048,-0.015,-0.002,101.0,105.0,97.0,13.3,1505.3,328.1,-0.7,1.8,2470.032,13.32,0.05,107.4
2019-06-10T05:31:51,42.805,6.029,0.042,0.004,-0.053,100.0,107.0,97.0,13.4,1505.3,322.8,-0.7,1.9,2470.045,13.32,0.042,84.6
2019-06-10T05:34:52,42.805,6.029,0.066,-0.017,-0.018,101.0,104.0,98.0,13.3,1505.3,325.5,-0.7,1.8,2470.023,13.32,0.068,104.4
2019-06-10T05:37:53,42.805,6.029,0.058,-0.027,-0.015,100.0,105.0,98.0,13.3,1505.3,326.4,-0.7,1.9,2470.094,13.32,0.063,115.0
2019-06-10T05:40:54,42.805,6.029,0.02,-0.021,-0.012,101.0,103.0,98.0,13.4,1505.3,324.7,-0.7,1.8,2470.057,13.32,0.028,136.4
2019-06-10T05:43:55,42.805,6.029,0.035,-0.019,-0.038,101.0,103.0,98.0,13.4,1505.3,327.6,-0.8,1.8,2470.052,13.32,0.039,118.5
2019-06-10T05:46:56,42.805,6.029,0.057,-0.012,-0.024,101.0,103.0,97.0,13.3,1505.3,323.6,-0.7,1.8,2470.064,13.32,0.058,101.9
2019-06-10T05:49:57,42.805,6.029,0.057,-0.011,-0.007,99.0,107.0,97.0,13.4,1505.3,326.1,-0.7,1.9,2470.083,13.32,0.058,100.9
2019-06-10T05:52:58,42.805,6.029,0.066,0.008,-0.005,100.0,106.0,98.0,13.4,1505.3,324.7,-0.8,1.8,2470.029,13.32,0.066,83.1
2019-06-10T05:55:59,42.805,6.029,0.028,-0.023,-0.026,101.0,105.0,97.0,13.4,1505.3,328.4,-0.7,1.8,2470.013,13.32,0.036,129.4
2019-06-10T05:59:00,42.805,6.029,0.065,-0.005,0.008,100.0,106.0,97.0,13.3,1505.3,323.9,-0.7,1.9,2470.062,13.32,0.065,94.4
2019-06-10T06:02:01,42.805,6.029,0.043,0.01,0.002,101.0,105.0,97.0,13.3,1505.3,323.7,-0.8,1.8,2470.073,13.32,0.044,76.9
2019-06-10T06:05:02,42.805,6.029,0.053,-0.008,0.004,101.0,104.0,97.0,13.4,1505.3,325.3,-0.8,1.8,2470.058,13.32,0.053,98.6
2019-06-10T06:08:03,42.805,6.029,0.048,-0.003,-0.023,101.0,105.0,97.0,13.4,1505.3,324.2,-0.8,1.9,2470.054,13.32,0.048,93.6
2019-06-10T06:11:04,42.805,6.029,0.059,0.0,-0.025,101.0,105.0,98.0,13.4,1505.3,325.0,-0.7,1.8,2470.038,13.32,0.058,90.0
2019-06-10T06:14:05,42.805,6.029,0.025,0.003,-0.032,102.0,105.0,97.0,13.4,1505.3,324.2,-0.7,1.9,2470.034,13.32,0.025,83.2
2019-06-10T06:17:06,42.805,6.029,0.035,0.017,-0.018,101.0,106.0,97.0,13.3,1505.3,326.6,-0.7,1.8,2470.055,13.32,0.038,64.1
2019-06-10T06:20:07,42.805,6.029,0.027,-0.004,-0.021,102.0,105.0,98.0,13.4,1505.3,326.2,-0.7,1.8,2470.035,13.32,0.027,98.4
2019-06-10T06:23:08,42.805,6.029,0.019,0.003,-0.059,101.0,105.0,99.0,13.4,1505.3,323.7,-0.7,1.8,2470.022,13.32,0.019,81.0
2019-06-10T06:26:09,42.805,6.029,0.042,-0.002,-0.012,100.0,105.0,98.0,13.3,1505.3,325.6,-0.7,1.8,2469.994,13.32,0.042,92.7
2019-06-10T06:29:10,42.805,6.029,0.049,-0.019,-0.022,101.0,106.0,98.0,13.4,1505.3,327.2,-0.8,1.8,2470.019,13.32,0.052,111.2
2019-06-10T06:32:11,42.805,6.029,0.043,0.01,-0.008,101.0,106.0,98.0,13.4,1505.3,324.5,-0.7,1.9,2470.043,13.32,0.044,76.9
2019-06-10T06:35:12,42.805,6.029,0.054,-0.003,0.0,102.0,105.0,98.0,13.3,1505.3,326.7,-0.7,1.8,2470.024,13.32,0.054,93.2
2019-06-10T06:38:13,42.805,6.029,0.024,-0.001,-0.013,102.0,106.0,98.0,13.4,1505.3,326.6,-0.7,1.8,2470.0,13.32,0.024,92.4
2019-06-10T06:41:14,42.805,6.029,0.028,-0.014,-0.023,100.0,108.0,97.0,13.4,1505.3,326.6,-0.7,1.9,2469.989,13.32,0.031,116.6
2019-06-10T06:44:15,42.805,6.029,0.044,0.019,-0.022,101.0,107.0,98.0,13.4,1505.3,323.8,-0.7,1.8,2470.014,13.32,0.047,66.6
2019-06-10T06:47:16,42.805,6.029,0.046,-0.002,0.0,100.0,104.0,98.0,13.4,1505.3,326.4,-0.7,1.9,2470.002,13.32,0.046,92.5
2019-06-10T06:50:17,42.805,6.029,0.062,0.004,-0.007,99.0,106.0,99.0,13.4,1505.3,326.0,-0.8,1.8,2470.018,13.32,0.062,86.3
2019-06-10T06:53:18,42.805,6.029,0.056,-0.004,-0.04,101.0,105.0,97.0,13.4,1505.3,324.7,-0.7,1.9,2470.024,13.32,0.056,94.1
2019-06-10T06:56:19,42.805,6.029,0.033,-0.009,-0.013,101.0,105.0,97.0,13.4,1505.3,327.5,-0.7,1.8,2470.038,13.32,0.034,105.3
2019-06-10T06:59:20,42.805,6.029,0.052,-0.025,0.001,101.0,104.0,97.0,13.4,1505.3,323.5,-0.8,1.8,2470.029,13.32,0.057,115.7
2019-06-10T07:02:21,42.805,6.029,0.035,-0.016,-0.027,102.0,107.0,98.0,13.3,1505.3,325.3,-0.7,1.9,2469.999,13.32,0.038,114.6
2019-06-10T07:05:22,42.805,6.029,0.036,-0.006,-0.017,101.0,105.0,97.0,13.3,1505.3,324.1,-0.8,1.9,2469.97,13.32,0.036,99.5
2019-06-10T07:08:23,42.805,6.029,0.035,-0.011,0.009,101.0,103.0,97.0,13.4,1505.3,325.5,-0.8,1.8,2470.024,13.32,0.036,107.4
2019-06-10T07:11:24,42.805,6.029,0.046,-0.01,-0.011,100.0,104.0,98.0,13.4,1505.3,326.7,-0.7,1.9,2469.99,13.32,0.047,102.3
2019-06-10T07:14:25,42.805,6.029,0.055,-0.017,-0.008,100.0,104.0,98.0,13.3,1505.3,327.4,-0.7,1.8,2470.014,13.32,0.057,107.2
2019-06-10T07:17:26,42.805,6.029,0.042,-0.018,-0.018,102.0,105.0,97.0,13.3,1505.3,324.6,-0.7,1.9,2470.011,13.32,0.045,113.2
2019-06-10T07:20:27,42.805,6.029,0.032,0.0,-0.04,101.0,105.0,97.0,13.4,1505.3,323.9,-0.7,1.9,2470.026,13.32,0.032,90.0
2019-06-10T07:23:28,42.805,6.029,0.02,0.007,0.0,102.0,105.0,97.0,13.3,1505.3,324.8,-0.7,1.8,2470.04,13.32,0.021,70.7
2019-06-10T07:26:29,42.805,6.029,0.049,0.012,-0.029,102.0,104.0,97.0,13.4,1505.3,325.7,-0.7,1.9,2469.997,13.32,0.05,76.2
2019-06-10T07:29:30,42.805,6.029,0.06,-0.024,-0.035,101.0,105.0,99.0,13.4,1505.3,327.3,-0.7,1.8,2469.996,13.32,0.064,111.8
2019-06-10T07:32:31,42.805,6.029,0.034,-0.004,-0.033,101.0,103.0,98.0,13.4,1505.3,328.2,-0.7,1.9,2469.943,13.32,0.034,96.7
2019-06-10T07:35:32,42.805,6.029,0.05,-0.001,0.015,99.0,105.0,98.0,13.4,1505.3,323.1,-0.7,1.9,2469.983,13.32,0.05,91.1
2019-06-10T07:38:33,42.805,6.029,0.026,0.01,0.016,101.0,108.0,97.0,13.4,1505.3,324.6,-0.8,1.9,2469.965,13.32,0.027,69.0
2019-06-10T07:41:34,42.805,6.029,0.048,-0.008,-0.028,100.0,105.0,98.0,13.3,1505.3,325.8,-0.8,1.8,2469.993,13.32,0.048,99.5
2019-06-10T07:44:35,42.805,6.029,0.035,0.004,0.003,99.0,106.0,99.0,13.3,1505.3,324.0,-0.7,1.8,2469.968,13.32,0.035,83.5
2019-06-10T07:47:36,42.805,6.029,0.044,0.001,0.018,100.0,106.0,97.0,13.4,1505.3,327.4,-0.7,1.8,2469.958,13.32,0.044,88.7
2019-06-10T07:50:37,42.805,6.029,0.063,-0.003,0.005,102.0,107.0,98.0,13.3,1505.3,323.2,-0.8,1.8,2469.966,13.32,0.063,92.7
2019-06-10T07:53:38,42.805,6.029,0.042,-0.032,-0.014,101.0,105.0,98.0,13.4,1505.3,326.0,-0.7,1.8,2470.0,13.32,0.052,127.3
2019-06-10T07:56:39,42.805,6.029,0.071,0.0,-0.014,100.0,106.0,95.0,13.4,1505.3,324.5,-0.7,1.8,2469.995,13.32,0.07,90.0
2019-06-10T07:59:40,42.805,6.029,0.032,0.009,0.0,101.0,106.0,97.0,13.4,1505.3,327.4,-0.7,1.8,2470.017,13.32,0.033,74.3
2019-06-10T08:02:41,42.805,6.029,0.043,-0.001,-0.005,100.0,106.0,98.0,13.4,1505.3,325.5,-0.7,1.8,2469.994,13.32,0.043,91.3
2019-06-10T08:05:42,42.805,6.029,0.049,-0.003,-0.008,99.0,107.0,98.0,13.4,1505.3,327.7,-0.7,1.8,2469.97,13.32,0.049,93.5
2019-06-10T08:08:43,42.805,6.029,0.017,0.007,-0.024,102.0,107.0,97.0,13.4,1505.3,324.2,-0.8,1.8,2469.933,13.32,0.018,67.6
2019-06-10T08:11:44,42.805,6.029,0.032,-0.024,-0.018,100.0,106.0,98.0,13.3,1505.3,325.0,-0.8,1.9,2470.003,13.32,0.04,126.9
2019-06-10T08:14:45,42.805,6.029,0.05,-0.007,-0.038,99.0,107.0,97.0,13.4,1505.3,326.1,-0.7,1.8,2469.971,13.32,0.05,98.0
2019-06-10T08:17:46,42.805,6.029,0.054,0.002,-0.004,100.0,106.0,96.0,13.4,1505.3,323.5,-0.7,1.9,2470.006,13.32,0.054,87.9
2019-06-10T08:20:47,42.805,6.029,0.039,-0.005,0.0,99.0,106.0,97.0,13.4,1505.3,324.3,-0.7,1.9,2470.008,13.32,0.039,97.3
2019-06-10T08:23:48,42.805,6.029,0.052,0.005,-0.015,103.0,105.0,97.0,13.4,1505.3,325.0,-0.7,1.8,2469.926,13.32,0.052,84.5
2019-06-10T08:26:49,42.805,6.029,0.044,-0.011,-0.003,102.0,106.0,97.0,13.4,1505.3,327.4,-0.8,1.9,2469.997,13.32,0.045,104.0
2019-06-10T08:29:50,42.805,6.029,0.045,-0.002,-0.009,100.0,108.0,98.0,13.4,1505.3,326.7,-0.7,1.9,2470.002,13.32,0.045,92.5
2019-06-10T08:32:51,42.805,6.029,0.058,-0.008,-0.005,104.0,106.0,96.0,13.3,1505.3,327.6,-0.7,1.8,2469.979,13.32,0.058,97.8
2019-06-10T08:35:52,42.805,6.029,0.044,0.002,-0.002,101.0,106.0,97.0,13.4,1505.3,323.5,-0.7,1.8,2469.987,13.32,0.044,87.4
2019-06-10T08:38:53,42.805,6.029,0.038,-0.004,-0.017,101.0,106.0,98.0,13.4,1505.3,323.0,-0.7,1.8,2469.932,13.32,0.038,96.0
2019-06-10T08:41:54,42.805,6.029,0.056,0.009,0.005,100.0,105.0,98.0,13.4,1505.3,325.4,-0.8,1.8,2469.971,13.32,0.056,80.9
2019-06-10T08:44:55,42.805,6.029,0.028,-0.01,-0.033,100.0,106.0,98.0,13.4,1505.3,326.0,-0.7,1.8,2469.995,13.32,0.029,109.6
2019-06-10T08:47:56,42.805,6.029,0.036,0.008,-0.018,102.0,108.0,95.0,13.4,1505.3,325.5,-0.7,1.8,2469.96,13.32,0.036,77.5
2019-06-10T08:50:57,42.805,6.029,0.069,-0.012,-0.007,101.0,106.0,96.0,13.4,1505.3,326.5,-0.8,1.9,2469.964,13.32,0.07,99.9
2019-06-10T08:53:58,42.805,6.029,0.04,0.006,-0.032,101.0,107.0,97.0,13.3,1505.3,324.4,-0.7,1.9,2469.993,13.32,0.04,81.5
2019-06-10T08:56:59,42.805,6.029,0.041,-0.006,0.0,100.0,106.0,98.0,13.3,1505.3,325.2,-0.7,1.9,2469.972,13.32,0.041,98.3
2019-06-10T09:00:00,42.805,6.029,0.047,0.006,-0.005,102.0,106.0,98.0,13.4,1505.3,323.7,-0.7,1.8,2469.928,13.32,0.047,82.7
2019-06-10T09:03:01,42.805,6.029,0.034,0.001,-0.004,99.0,107.0,98.0,13.4,1505.3,325.3,-0.7,1.9,2470.017,13.32,0.034,88.3
2019-06-10T09:06:02,42.805,6.029,0.052,0.002,-0.035,102.0,105.0,97.0,13.4,1505.3,325.1,-0.8,1.9,2469.976,13.32,0.052,87.8
2019-06-10T09:09:03,42.805,6.029,0.045,-0.006,-0.05,99.0,106.0,98.0,13.4,1505.3,325.3,-0.7,1.8,2470.019,13.32,0.045,97.6
2019-06-10T09:12:04,42.805,6.029,0.064,-0.027,0.003,101.0,106.0,98.0,13.3,1505.3,328.3,-0.8,1.9,2469.972,13.32,0.069,112.9
2019-06-10T09:15:05,42.805,6.029,0.046,-0.008,-0.026,101.0,104.0,98.0,13.3,1505.3,323.3,-0.7,1.8,2469.992,13.32,0.046,99.9
2019-06-10T09:18:06,42.805,6.029,0.04,-0.004,-0.022,101.0,106.0,98.0,13.4,1505.3,323.0,-0.7,1.9,2469.992,13.32,0.04,95.7
2019-06-10T09:21:07,42.805,6.029,0.045,0.007,-0.002,101.0,107.0,97.0,13.4,1505.3,323.8,-0.7,1.8,2469.963,13.32,0.045,81.2
2019-06-10T09:24:08,42.805,6.029,0.033,0.019,-0.027,100.0,107.0,97.0,13.4,1505.3,323.3,-0.7,1.8,2469.979,13.32,0.038,60.1
2019-06-10T09:27:09,42.805,6.029,0.026,-0.012,-0.06,101.0,108.0,98.0,13.4,1505.3,327.0,-0.7,1.9,2470.011,13.32,0.028,114.8
2019-06-10T09:30:10,42.805,6.029,0.022,0.012,-0.028,101.0,108.0,97.0,13.3,1505.3,326.6,-0.8,1.9,2469.986,13.32,0.025,61.4
2019-06-10T09:33:11,42.805,6.029,0.032,-0.005,-0.016,100.0,107.0,98.0,13.4,1505.3,326.2,-0.7,1.8,2469.998,13.32,0.032,98.9
2019-06-10T09:36:12,42.805,6.029,0.048,0.0,-0.003,101.0,107.0,98.0,13.4,1505.3,326.4,-0.7,1.9,2469.977,13.32,0.048,90.0
2019-06-10T09:39:13,42.805,6.029,0.041,-0.002,-0.02,101.0,107.0,97.0,13.3,1505.3,326.9,-0.8,1.8,2470.014,13.32,0.041,92.8
2019-06-10T09:42:14,42.805,6.029,0.053,0.013,-0.026,100.0,108.0,97.0,13.4,1505.3,326.4,-0.7,1.8,2470.015,13.32,0.054,76.2
2019-06-10T09:45:15,42.805,6.029,0.056,-0.005,-0.008,101.0,109.0,97.0,13.4,1505.3,327.5,-0.7,1.9,2470.004,13.32,0.056,95.1